Glens Falls, NY

10:21 PM EDT on June 22, 2017 (GMT -0400)
Bennett Memorial

Weather History for KGFL - February, 2015

Change the Weather History Date:

Friday, February 20, 2015

  Actual Average Record
Temperature  
Mean Temperature 7 °F 23 °F  
Max Temperature 19 °F 34 °F 58 °F (1981)
Min Temperature -6 °F 11 °F -23 °F (1966)
Degree Days  
Heating Degree Days 58 42  
Month to date heating degree days 1153 895  
Since 1 July heating degree days 5224 5291  
Cooling Degree Days 0 0  
Month to date cooling degree days 0 0  
Year to date cooling degree days 0 0  
Moisture  
Dew Point -11 °F    
Average Humidity 49    
Maximum Humidity 69    
Minimum Humidity 28    
Precipitation  
Precipitation 0.00 in 0.07 in 0.72 in (1981)
Month to date precipitation 0.49 1.46  
Year to date precipitation 1.98 4.32  
Sea Level Pressure  
Sea Level Pressure 30.17 in    
Wind  
Wind Speed 7 mph (West)    
Max Wind Speed 16 mph    
Max Gust Speed 20 mph    
Visibility 10 miles    
Events      
T = Trace of Precipitation, MM = Missing Value Source: NWS Daily Summary

Daily Weather History Graph

Daily Weather History Graph

Search for Another Location

Airport or City:

Trip Planner

Search our weather history database for the weather conditions in past years. The results will help you decide how hot, cold, wet, or windy it might be!

Date:

Astronomy

Feb. 20, 2015 Rise Set
Actual Time 6:45 AM EST 5:31 PM EST
Civil Twilight 6:16 AM EST 6:00 PM EST
Nautical Twilight 5:43 AM EST 6:33 PM EST
Astronomical Twilight 5:10 AM EST 7:06 PM EST
Moon 7:32 AM EST (2/20) 7:58 PM EST (2/20)
Length of Visible Light 11h 44m
Length of Day
10h 46m
Waxing Crescent, 4% of the Moon is Illuminated
Feb 20
Waxing Crescent
Feb 25
First Quarter
Mar 5
Full
Mar 13
Last Quarter
Mar 20
New

Hourly Weather History & Observations

Time (EST) Temp. Windchill Dew Point Humidity Pressure Visibility Wind Dir Wind Speed Gust Speed Precip Events Conditions
12:53 AM 3.9 °F -12.2 °F -13.0 °F 46% 29.88 in 10.0 mi WSW 11.5 mph 19.6 mph N/A   Partly Cloudy
1:53 AM 3.0 °F -4.4 °F -13.0 °F 47% 29.90 in 10.0 mi Variable 3.5 mph - N/A   Partly Cloudy
2:53 AM 1.4 °F -9.9 °F -14.8 °F 47% 29.87 in 10.0 mi West 5.8 mph - N/A   Overcast
3:53 AM 1.4 °F -13.5 °F -14.8 °F 47% 29.89 in 10.0 mi West 9.2 mph 19.6 mph N/A   Overcast
4:53 AM -0.0 °F -15.3 °F -16.1 °F 47% 29.97 in 10.0 mi West 9.2 mph - N/A   Scattered Clouds
5:53 AM -0.9 °F -15.3 °F -17.0 °F 47% 30.00 in 10.0 mi West 8.1 mph - N/A   Overcast
6:53 AM -0.9 °F -14.1 °F -17.0 °F 47% 30.04 in 10.0 mi West 6.9 mph - N/A   Overcast
7:53 AM -0.9 °F -14.1 °F -17.0 °F 47% 30.07 in 10.0 mi WSW 6.9 mph - N/A   Scattered Clouds
8:53 AM 1.0 °F -11.7 °F -16.1 °F 45% 30.09 in 10.0 mi WSW 6.9 mph - N/A   Clear
9:53 AM 3.9 °F -11.3 °F -14.1 °F 43% 30.11 in 10.0 mi WNW 10.4 mph - N/A   Clear
10:53 AM 8.1 °F -4.3 °F -11.0 °F 42% 30.14 in 10.0 mi NNW 8.1 mph - N/A   Clear
11:53 AM 9.0 °F - -9.9 °F 42% 30.15 in 10.0 mi Calm Calm - N/A   Mostly Cloudy
12:53 PM 14.0 °F 5.1 °F -8.0 °F 37% 30.17 in 10.0 mi NW 5.8 mph - N/A   Clear
1:53 PM 18.0 °F 8.7 °F -9.0 °F 30% 30.18 in 10.0 mi NNW 6.9 mph - N/A   Clear
2:53 PM 19.0 °F 10.0 °F -9.0 °F 29% 30.21 in 10.0 mi West 6.9 mph - N/A   Clear
3:53 PM 19.0 °F 6.8 °F -9.0 °F 29% 30.23 in 10.0 mi West 11.5 mph 18.4 mph N/A   Clear
4:53 PM 17.1 °F 7.6 °F -9.0 °F 31% 30.27 in 10.0 mi West 6.9 mph - N/A   Clear
5:53 PM 15.1 °F 6.4 °F -9.0 °F 34% 30.31 in 10.0 mi West 5.8 mph - N/A   Clear
6:53 PM 12.0 °F 0.5 °F -5.1 °F 46% 30.35 in 10.0 mi SW 8.1 mph - N/A   Clear
7:53 PM 10.0 °F -2.9 °F -6.0 °F 48% 30.39 in 10.0 mi WSW 9.2 mph - N/A   Clear
8:53 PM 7.0 °F -6.6 °F -5.1 °F 58% 30.42 in 10.0 mi SSW 9.2 mph - N/A   Clear
9:53 PM 5.0 °F -6.9 °F -5.1 °F 63% 30.44 in 10.0 mi SW 6.9 mph - N/A   Clear
10:53 PM 1.0 °F -8.7 °F -7.1 °F 69% 30.45 in 10.0 mi South 4.6 mph - N/A   Clear
11:53 PM -5.1 °F - -11.9 °F 72% 30.47 in 10.0 mi Calm Calm - N/A   Clear